AXY519T EGSS-EDDL

Flight info

Callsign AXY519T
Flight time 0h 52m
Altitude 33000
Route CLN P44 RATLO M197 REDFA L620 TACHA DCT PAM P62 PISAP
Aircraft A343/H-SDE2E3FGHIJ4J5M1RWXY/LB1D1

Departure

Time 2026-05-05 12:33
Airport London Stansted Airport (EGSS)

Arrival

Time 2026-05-05 13:25
Airport Düsseldorf Airport (EDDL)
Time Latitude Longitude Altitude Speed Heading
2026-05-05 12:10 51.88603 0.22679 340 ft 0 kts 39°
2026-05-05 12:28 51.88613 0.22692 340 ft 5 kts 39°
2026-05-05 12:29 51.88651 0.22760 340 ft 8 kts 77°
2026-05-05 12:29 51.88615 0.22871 341 ft 15 kts 127°
2026-05-05 12:29 51.88543 0.23016 341 ft 18 kts 130°
2026-05-05 12:29 51.88453 0.23022 344 ft 17 kts 224°
2026-05-05 12:30 51.88358 0.22874 341 ft 21 kts 224°
2026-05-05 12:30 51.88238 0.22699 340 ft 24 kts 224°
2026-05-05 12:30 51.88122 0.22521 340 ft 23 kts 223°
2026-05-05 12:30 51.88002 0.22339 339 ft 24 kts 223°
2026-05-05 12:31 51.87881 0.22159 336 ft 24 kts 222°
2026-05-05 12:31 51.87776 0.22002 332 ft 8 kts 223°
2026-05-05 12:31 51.87713 0.21917 330 ft 16 kts 208°
2026-05-05 12:31 51.87595 0.21944 327 ft 19 kts 165°
2026-05-05 12:32 51.87552 0.22057 327 ft 9 kts 51°
2026-05-05 12:32 51.87634 0.22181 330 ft 39 kts 42°
2026-05-05 12:32 51.88033 0.22777 339 ft 115 kts 43°
2026-05-05 12:32 51.88776 0.23886 402 ft 169 kts 42°
2026-05-05 12:33 51.89642 0.25180 1155 ft 173 kts 44°
2026-05-05 12:33 51.90328 0.26896 1760 ft 197 kts 69°
2026-05-05 12:33 51.90490 0.29251 2096 ft 228 kts 96°
2026-05-05 12:33 51.90202 0.31943 2284 ft 259 kts 103°
2026-05-05 12:34 51.89811 0.34834 2546 ft 263 kts 103°
2026-05-05 12:34 51.89431 0.37752 3011 ft 265 kts 102°
2026-05-05 12:34 51.88967 0.40652 3359 ft 266 kts 111°
2026-05-05 12:34 51.88227 0.43398 3616 ft 267 kts 116°
2026-05-05 12:35 51.87419 0.46120 3873 ft 270 kts 116°
2026-05-05 12:35 51.86590 0.48908 4515 ft 276 kts 116°
2026-05-05 12:35 51.85771 0.51679 5756 ft 276 kts 116°
2026-05-05 12:35 51.84940 0.54497 7057 ft 278 kts 115°
2026-05-05 12:36 51.84207 0.57421 8106 ft 283 kts 108°
2026-05-05 12:36 51.83745 0.60541 9108 ft 288 kts 99°
2026-05-05 12:36 51.83544 0.63798 10114 ft 293 kts 94°
2026-05-05 12:36 51.83417 0.67123 11107 ft 300 kts 94°
2026-05-05 12:37 51.83295 0.70597 11676 ft 321 kts 93°
2026-05-05 12:37 51.83331 0.74313 12197 ft 339 kts 87°
2026-05-05 12:37 51.83478 0.78175 12930 ft 347 kts 86°
2026-05-05 12:37 51.83641 0.82138 13538 ft 359 kts 86°
2026-05-05 12:38 51.83805 0.86256 13924 ft 375 kts 86°
2026-05-05 12:38 51.83967 0.90529 14393 ft 385 kts 86°
2026-05-05 12:38 51.84128 0.94829 14936 ft 391 kts 87°
2026-05-05 12:38 51.84292 0.99256 15491 ft 396 kts 87°
2026-05-05 12:39 51.84456 1.03735 16026 ft 400 kts 87°
2026-05-05 12:39 51.84619 1.08256 16542 ft 404 kts 87°
2026-05-05 12:39 51.84853 1.12807 17062 ft 408 kts 82°
2026-05-05 12:39 51.85539 1.17293 17533 ft 412 kts 72°
2026-05-05 12:40 51.86542 1.21663 17986 ft 416 kts 68°
2026-05-05 12:40 51.87675 1.25946 18419 ft 419 kts 66°
2026-05-05 12:40 51.88887 1.30279 18841 ft 422 kts 65°
2026-05-05 12:40 51.90117 1.34633 19252 ft 425 kts 65°
2026-05-05 12:41 51.91327 1.38961 19639 ft 428 kts 66°
2026-05-05 12:41 51.92547 1.43397 20003 ft 431 kts 66°
2026-05-05 12:41 51.93758 1.47872 20344 ft 434 kts 66°
2026-05-05 12:41 51.94963 1.52373 20680 ft 437 kts 66°
2026-05-05 12:42 51.96169 1.56909 20991 ft 439 kts 67°
2026-05-05 12:42 51.97380 1.61477 21287 ft 442 kts 67°
2026-05-05 12:42 51.98553 1.66030 21561 ft 444 kts 69°
2026-05-05 12:42 51.99499 1.70808 21831 ft 446 kts 74°
2026-05-05 12:43 52.00339 1.75673 22086 ft 448 kts 75°
2026-05-05 12:43 52.01131 1.80589 22328 ft 450 kts 76°
2026-05-05 12:43 52.01897 1.85533 22558 ft 452 kts 76°
2026-05-05 12:43 52.02653 1.90495 22781 ft 454 kts 76°
2026-05-05 12:44 52.03411 1.95491 22990 ft 455 kts 76°
2026-05-05 12:44 52.04173 2.00507 23186 ft 457 kts 76°
2026-05-05 12:44 52.04927 2.05461 23378 ft 459 kts 76°
2026-05-05 12:44 52.05696 2.10506 23561 ft 460 kts 76°
2026-05-05 12:45 52.06467 2.15571 23738 ft 462 kts 76°
2026-05-05 12:45 52.07241 2.20661 23907 ft 463 kts 76°
2026-05-05 12:45 52.08014 2.25757 24066 ft 465 kts 76°
2026-05-05 12:45 52.08787 2.30874 24223 ft 466 kts 76°
2026-05-05 12:46 52.09560 2.36006 24373 ft 467 kts 76°
2026-05-05 12:46 52.10332 2.41148 24518 ft 469 kts 76°
2026-05-05 12:46 52.11095 2.46248 24656 ft 470 kts 76°
2026-05-05 12:46 52.11878 2.51431 24790 ft 471 kts 75°
2026-05-05 12:47 52.12779 2.56563 24922 ft 472 kts 73°
2026-05-05 12:47 52.13766 2.61634 25395 ft 465 kts 72°
2026-05-05 12:47 52.14757 2.66575 25991 ft 455 kts 72°
2026-05-05 12:47 52.15734 2.71462 26354 ft 452 kts 72°
2026-05-05 12:48 52.16692 2.76342 26590 ft 452 kts 72°
2026-05-05 12:48 52.17638 2.81251 26787 ft 453 kts 73°
2026-05-05 12:48 52.18572 2.86173 26969 ft 454 kts 73°
2026-05-05 12:48 52.19488 2.91042 27136 ft 455 kts 73°
2026-05-05 12:49 52.20414 2.96001 27290 ft 457 kts 73°
2026-05-05 12:49 52.21338 3.00962 27438 ft 458 kts 73°
2026-05-05 12:49 52.22265 3.05953 27584 ft 459 kts 73°
2026-05-05 12:49 52.23192 3.10954 27726 ft 460 kts 73°
2026-05-05 12:50 52.24118 3.15963 27857 ft 462 kts 73°
2026-05-05 12:50 52.25023 3.21011 27984 ft 463 kts 76°
2026-05-05 12:50 52.25624 3.26179 28163 ft 464 kts 83°
2026-05-05 12:50 52.25991 3.31356 28484 ft 461 kts 84°
2026-05-05 12:51 52.26284 3.36528 29112 ft 452 kts 85°
2026-05-05 12:51 52.26537 3.41625 29528 ft 449 kts 86°
2026-05-05 12:51 52.26772 3.46717 29784 ft 449 kts 86°
2026-05-05 12:51 52.27000 3.51749 29998 ft 450 kts 86°
2026-05-05 12:52 52.27232 3.56857 30200 ft 451 kts 86°
2026-05-05 12:52 52.27467 3.61977 30399 ft 452 kts 86°
2026-05-05 12:52 52.27705 3.67113 30666 ft 452 kts 86°
2026-05-05 12:52 52.27941 3.72221 30918 ft 451 kts 86°
2026-05-05 12:53 52.28412 3.82491 30999 ft 461 kts 86°
2026-05-05 12:53 52.28888 3.93049 30996 ft 471 kts 86°
2026-05-05 12:54 52.29599 4.09271 30997 ft 482 kts 86°
2026-05-05 12:55 52.30069 4.20290 30998 ft 489 kts 86°
2026-05-05 12:55 52.30532 4.31392 30998 ft 494 kts 86°
2026-05-05 12:56 52.30993 4.42701 30996 ft 502 kts 86°
2026-05-05 12:56 52.31447 4.54103 30997 ft 509 kts 86°
2026-05-05 12:57 52.31897 4.65692 30996 ft 512 kts 86°
2026-05-05 12:57 52.32110 4.71250 32143 ft 476 kts 86°
2026-05-05 12:57 52.32317 4.76610 32218 ft 484 kts 86°
2026-05-05 12:57 52.32528 4.82188 31870 ft 498 kts 86°
2026-05-05 12:58 52.32734 4.87869 31426 ft 508 kts 87°
2026-05-05 12:58 52.32943 4.93706 31071 ft 515 kts 87°
2026-05-05 12:58 52.33148 4.99563 30997 ft 516 kts 87°
2026-05-05 12:59 52.32513 5.11120 31001 ft 513 kts 105°
2026-05-05 12:59 52.29930 5.21968 31000 ft 510 kts 114°
2026-05-05 13:00 52.25392 5.37585 31001 ft 508 kts 116°
2026-05-05 13:01 52.19313 5.58299 30922 ft 508 kts 116°
2026-05-05 13:01 52.17963 5.62924 30702 ft 512 kts 116°
2026-05-05 13:01 52.17511 5.64472 30627 ft 513 kts 116°
2026-05-05 13:02 52.15967 5.69755 30367 ft 518 kts 116°
2026-05-05 13:02 52.14937 5.73271 30196 ft 520 kts 116°
2026-05-05 13:02 52.13385 5.78563 29766 ft 515 kts 116°
2026-05-05 13:02 52.11860 5.83766 29073 ft 504 kts 116°
2026-05-05 13:03 52.10353 5.88892 28341 ft 495 kts 116°
2026-05-05 13:03 52.08864 5.93941 27318 ft 492 kts 116°
2026-05-05 13:03 52.07412 5.98970 26447 ft 487 kts 114°
2026-05-05 13:03 52.06054 6.03908 25610 ft 481 kts 114°
2026-05-05 13:04 52.04697 6.08855 24760 ft 475 kts 114°
2026-05-05 13:04 52.04011 6.11346 24319 ft 473 kts 114°
2026-05-05 13:04 52.02759 6.15852 25880 ft 410 kts 111°
2026-05-05 13:04 52.01681 6.19633 24945 ft 421 kts 113°
2026-05-05 13:05 52.00840 6.22480 23870 ft 433 kts 116°
2026-05-05 13:05 51.99454 6.26978 22131 ft 451 kts 117°
2026-05-05 13:05 51.98000 6.31584 20576 ft 463 kts 116°
2026-05-05 13:05 51.96649 6.36340 19642 ft 460 kts 114°
2026-05-05 13:06 51.95366 6.40951 19132 ft 445 kts 115°
2026-05-05 13:06 51.94090 6.45427 18676 ft 430 kts 115°
2026-05-05 13:06 51.92937 6.49833 18220 ft 417 kts 112°
2026-05-05 13:06 51.91837 6.54150 17759 ft 411 kts 113°
2026-05-05 13:07 51.90727 6.58347 17276 ft 409 kts 114°
2026-05-05 13:07 51.89581 6.62550 16760 ft 406 kts 114°
2026-05-05 13:07 51.88422 6.66718 16259 ft 403 kts 115°
2026-05-05 13:07 51.87267 6.70819 15696 ft 399 kts 115°
2026-05-05 13:08 51.86113 6.74893 15074 ft 395 kts 115°
2026-05-05 13:08 51.84980 6.78868 14455 ft 391 kts 115°
2026-05-05 13:08 51.83842 6.82849 13830 ft 386 kts 115°
2026-05-05 13:08 51.82721 6.86764 13209 ft 381 kts 115°
2026-05-05 13:09 51.81615 6.90616 12692 ft 373 kts 115°
2026-05-05 13:09 51.80533 6.94377 12257 ft 364 kts 115°
2026-05-05 13:09 51.79484 6.98018 12015 ft 349 kts 115°
2026-05-05 13:09 51.78400 7.01352 11740 ft 328 kts 124°
2026-05-05 13:10 51.76889 7.03935 11074 ft 310 kts 141°
2026-05-05 13:10 51.75180 7.06048 10433 ft 309 kts 144°
2026-05-05 13:10 51.73465 7.08083 10101 ft 304 kts 144°
2026-05-05 13:10 51.71770 7.10104 9755 ft 300 kts 144°
2026-05-05 13:11 51.70101 7.12096 9368 ft 297 kts 144°
2026-05-05 13:11 51.68445 7.14071 8968 ft 295 kts 144°
2026-05-05 13:11 51.66707 7.15767 8588 ft 291 kts 160°
2026-05-05 13:11 51.64801 7.16508 8353 ft 283 kts 171°
2026-05-05 13:12 51.62852 7.16934 7915 ft 282 kts 175°
2026-05-05 13:12 51.60913 7.16555 7466 ft 282 kts 200°
2026-05-05 13:12 51.59288 7.14835 7099 ft 278 kts 227°
2026-05-05 13:12 51.58375 7.12180 7006 ft 269 kts 255°
2026-05-05 13:13 51.58141 7.09232 6999 ft 269 kts 264°
2026-05-05 13:13 51.57790 7.06284 6999 ft 270 kts 255°
2026-05-05 13:13 51.57135 7.03447 6999 ft 270 kts 242°
2026-05-05 13:13 51.56063 7.00980 6999 ft 270 kts 230°
2026-05-05 13:14 51.54833 6.98695 6989 ft 270 kts 228°
2026-05-05 13:14 51.53582 6.96478 6919 ft 270 kts 227°
2026-05-05 13:14 51.52308 6.94248 6986 ft 271 kts 227°
2026-05-05 13:14 51.51031 6.92023 6999 ft 270 kts 227°
2026-05-05 13:15 51.49753 6.89804 7001 ft 270 kts 227°
2026-05-05 13:15 51.48474 6.87593 7003 ft 270 kts 227°
2026-05-05 13:15 51.47197 6.85391 6998 ft 270 kts 227°
2026-05-05 13:15 51.45920 6.83191 6999 ft 270 kts 227°
2026-05-05 13:16 51.44640 6.80989 7003 ft 270 kts 227°
2026-05-05 13:16 51.43361 6.78790 6999 ft 270 kts 227°
2026-05-05 13:16 51.42093 6.76612 7000 ft 270 kts 227°
2026-05-05 13:16 51.40807 6.74405 7002 ft 270 kts 227°
2026-05-05 13:17 51.39527 6.72212 7002 ft 270 kts 227°
2026-05-05 13:17 51.38243 6.70012 7000 ft 270 kts 227°
2026-05-05 13:17 51.36958 6.67814 6869 ft 270 kts 227°
2026-05-05 13:17 51.35690 6.65647 6634 ft 269 kts 227°
2026-05-05 13:18 51.34421 6.63478 6384 ft 268 kts 227°
2026-05-05 13:18 51.33148 6.61303 6133 ft 266 kts 227°
2026-05-05 13:18 51.31879 6.59139 5884 ft 265 kts 227°
2026-05-05 13:18 51.30609 6.56977 5495 ft 265 kts 227°
2026-05-05 13:19 51.29341 6.54818 5054 ft 267 kts 226°
2026-05-05 13:19 51.28084 6.52680 4664 ft 258 kts 227°
2026-05-05 13:19 51.26802 6.50873 4307 ft 240 kts 214°
2026-05-05 13:19 51.25351 6.49772 3947 ft 225 kts 194°
2026-05-05 13:20 51.23830 6.49783 3580 ft 219 kts 163°
2026-05-05 13:20 51.22540 6.51076 3239 ft 221 kts 137°
2026-05-05 13:20 51.21473 6.52819 3113 ft 214 kts 134°
2026-05-05 13:20 51.20489 6.54500 3108 ft 204 kts 134°
2026-05-05 13:21 51.19790 6.56380 3005 ft 196 kts 99°
2026-05-05 13:21 51.19986 6.58464 2899 ft 188 kts 68°
2026-05-05 13:21 51.20719 6.60205 2658 ft 192 kts 49°
2026-05-05 13:21 51.21588 6.61807 2328 ft 190 kts 51°
2026-05-05 13:22 51.22365 6.63462 2012 ft 180 kts 55°
2026-05-05 13:22 51.23078 6.64988 1782 ft 167 kts 52°
2026-05-05 13:22 51.23770 6.66413 1552 ft 157 kts 52°
2026-05-05 13:22 51.24408 6.67753 1347 ft 146 kts 53°
2026-05-05 13:23 51.25009 6.69015 1137 ft 140 kts 53°
2026-05-05 13:23 51.25591 6.70234 927 ft 135 kts 53°
2026-05-05 13:23 51.26169 6.71444 762 ft 138 kts 52°
2026-05-05 13:23 51.26750 6.72644 572 ft 137 kts 53°
2026-05-05 13:24 51.27328 6.73849 389 ft 137 kts 53°
2026-05-05 13:24 51.27898 6.75046 214 ft 136 kts 53°
2026-05-05 13:24 51.28456 6.76234 136 ft 126 kts 53°
2026-05-05 13:24 51.28866 6.77097 132 ft 62 kts 52°
2026-05-05 13:25 51.28996 6.77374 133 ft 24 kts 56°
2026-05-05 13:25 51.29000 6.77571 132 ft 19 kts 130°
2026-05-05 13:25 51.28929 6.77651 133 ft 19 kts 162°
2026-05-05 13:25 51.28890 6.77633 134 ft 6 kts 230°
2026-05-05 13:26 51.28840 6.77517 134 ft 19 kts 236°
2026-05-05 13:26 51.28759 6.77335 134 ft 22 kts 232°
2026-05-05 13:26 51.28677 6.77169 134 ft 25 kts 232°
2026-05-05 13:26 51.28581 6.76970 133 ft 27 kts 232°
2026-05-05 13:27 51.28467 6.76730 130 ft 21 kts 232°
2026-05-05 13:27 51.28375 6.76535 130 ft 24 kts 233°
2026-05-05 13:27 51.28271 6.76318 132 ft 25 kts 232°
2026-05-05 13:27 51.28167 6.76102 133 ft 26 kts 232°
2026-05-05 13:28 51.28060 6.75877 134 ft 28 kts 233°
2026-05-05 13:28 51.27951 6.75648 133 ft 22 kts 233°
2026-05-05 13:28 51.27861 6.75456 131 ft 19 kts 233°
2026-05-05 13:28 51.27782 6.75405 130 ft 13 kts 167°
2026-05-05 13:29 51.27729 6.75376 130 ft 4 kts 234°
2026-05-05 13:29 51.27716 6.75338 129 ft 3 kts 243°
2026-05-05 13:29 51.27711 6.75321 129 ft 0 kts 243°